Location: North Evanston
(42.0634°N, 87.6976°W)
Time: 22:32:01
(UTC+00:00)

Transit 2A - Pass Details

Date: 15 May 2026
Orbit: 595 x 949 km, 66.7° (Epoch: 5 June)

Event Time Altitude Azimuth Distance (km) Brightness Sun altitude
Rises 07:23:03 0° 320° (NW) 3,124 9.5 -25.1°
Reaches altitude 10° 07:25:44 10° 309° (NW) 2,140 8.4 -24.9°
Enters shadow 07:27:34 19° 293° (WNW) 1,573 7.6 -24.8°
Maximum altitude 07:29:48 28° 251° (WSW) 1,223 - -24.6°
Drops below altitude 10° 07:33:36 10° 192° (SSW) 1,985 - -24.3°
Sets 07:36:01 0° 180° (S) 2,855 - -24.1°
